KY4EF Weather Reports


time (UTC)temp
C
wind
direction
speed
KPH
gust
KPH
rain 1hr
cm
rain 24hr
cm
rain mn
cm
humidity
%
barometer
mb
20260504035411 5 290 0.0 0.0 0.00 0.00 0.00 90 1016.6
20260504034908 5 291 0.0 0.0 0.00 0.00 0.00 90 1016.7
20260504034405 5 298 0.0 0.0 0.00 0.00 0.00 89 1016.8
20260504033902 5 320 0.0 0.0 0.00 0.00 0.00 89 1016.7
20260504033400 5 298 0.0 0.0 0.00 0.00 0.00 88 1016.7
20260504032856 6 351 0.0 0.0 0.00 0.00 0.00 88 1016.5
20260504032353 6 294 0.0 0.0 0.00 0.00 0.00 87 1016.6
20260504031850 6 286 0.0 0.0 0.00 0.00 0.00 87 1016.6
20260504031347 6 297 0.0 0.0 0.00 0.00 0.00 87 1016.5
20260504030843 6 298 0.0 0.0 0.00 0.00 0.00 87 1016.6
20260504030341 6 299 0.0 0.0 0.00 0.00 0.00 87 1016.3
20260504025837 6 317 1.6 1.6 0.00 0.00 0.00 85 1016.3
20260504025334 6 251 0.0 0.0 0.00 0.00 0.00 84 1016.2
20260504024831 6 274 0.0 0.0 0.00 0.00 0.00 84 1016.3
20260504024327 6 272 0.0 0.0 0.00 0.00 0.00 83 1016.4
20260504023824 7 264 0.0 1.6 0.00 0.00 0.00 84 1016.6
20260504023321 7 290 0.0 0.0 0.00 0.00 0.00 83 1016.7
20260504022816 7 211 0.0 0.0 0.00 0.00 0.00 82 1016.6
20260504022314 7 348 0.0 0.0 0.00 0.00 0.00 83 1016.6
20260504021810 7 348 0.0 0.0 0.00 0.00 0.00 83 1016.5
20260504021308 7 351 0.0 0.0 0.00 0.00 0.00 82 1016.7
20260504020804 7 64 0.0 0.0 0.00 0.00 0.00 81 1016.5
20260504020301 8 80 1.6 1.6 0.00 0.00 0.00 78 1016.6
20260504015757 8 250 0.0 1.6 0.00 0.00 0.00 76 1016.4
20260504015253 8 253 0.0 0.0 0.00 0.00 0.00 77 1016.4
20260504014749 8 254 0.0 0.0 0.00 0.00 0.00 76 1016.3
20260504014246 8 254 0.0 0.0 0.00 0.00 0.00 75 1016.2
20260504013744 8 254 0.0 0.0 0.00 0.00 0.00 75 1016.0
20260504013241 8 253 0.0 0.0 0.00 0.00 0.00 75 1016.1
20260504012737 9 253 0.0 0.0 0.00 0.00 0.00 72 1016.0
20260504012235 9 253 0.0 0.0 0.00 0.00 0.00 72 1016.0
20260504011732 9 261 0.0 0.0 0.00 0.00 0.00 73 1016.1
20260504011229 10 315 0.0 0.0 0.00 0.00 0.00 71 1016.1
20260504010725 10 245 0.0 0.0 0.00 0.00 0.00 71 1015.8
20260504010221 10 251 1.6 1.6 0.00 0.00 0.00 68 1016.0
20260504005717 10 276 0.0 0.0 0.00 0.00 0.00 69 1015.8
20260504005215 10 238 0.0 1.6 0.00 0.00 0.00 68 1015.9
20260504004712 11 265 0.0 0.0 0.00 0.00 0.00 67 1015.9
20260504004209 11 278 0.0 0.0 0.00 0.00 0.00 65 1015.8
20260504003706 11 171 1.6 1.6 0.00 0.00 0.00 62 1015.7
20260504003203 11 277 0.0 0.0 0.00 0.00 0.00 62 1015.7
20260504002659 12 292 0.0 1.6 0.00 0.00 0.00 59 1015.5
20260504002156 12 241 0.0 0.0 0.00 0.00 0.00 58 1015.7
20260504001649 12 130 0.0 0.0 0.00 0.00 0.00 58 1015.3
20260504001145 13 129 0.0 0.0 0.00 0.00 0.00 57 1015.2
20260504000642 13 133 1.6 1.6 0.00 0.00 0.00 54 1015.2
20260504000140 13 128 3.2 3.2 0.00 0.00 0.00 52 1015.1
20260503235638 15 268 1.6 1.6 0.00 0.00 0.00 49 1015.3
20260503235134 15 282 0.0 0.0 0.00 0.00 0.00 45 1015.2
20260503234632 15 291 1.6 1.6 0.00 0.00 0.00 45 1015.3
20260503234130 15 299 1.6 1.6 0.00 0.00 0.00 44 1015.3
20260503233627 15 299 0.0 1.6 0.00 0.00 0.00 44 1015.3
20260503233122 16 275 3.2 3.2 0.00 0.00 0.00 43 1015.1
20260503232620 16 277 1.6 1.6 0.00 0.00 0.00 43 1015.2
20260503232117 16 301 3.2 3.2 0.00 0.00 0.00 44 1015.2
20260503231615 16 304 3.2 3.2 0.00 0.00 0.00 42 1015.1
20260503231111 16 292 1.6 1.6 0.00 0.00 0.00 42 1015.3
20260503230609 16 309 1.6 3.2 0.00 0.00 0.00 42 1015.3
20260503230105 16 306 3.2 3.2 0.00 0.00 0.00 41 1015.3
20260503225603 16 292 1.6 1.6 0.00 0.00 0.00 42 1015.3
20260503225057 16 318 3.2 4.8 0.00 0.00 0.00 42 1015.3
20260503224555 16 297 4.8 4.8 0.00 0.00 0.00 40 1015.1
20260503224053 16 314 1.6 1.6 0.00 0.00 0.00 39 1015.5
20260503223550 16 297 3.2 4.8 0.00 0.00 0.00 39 1015.3
20260503223045 16 285 4.8 6.4 0.00 0.00 0.00 40 1015.5
20260503222544 17 290 4.8 4.8 0.00 0.00 0.00 39 1015.2
20260503222042 17 311 4.8 4.8 0.00 0.00 0.00 39 1015.2
20260503221539 17 300 4.8 4.8 0.00 0.00 0.00 38 1015.5
20260503221036 17 299 4.8 4.8 0.00 0.00 0.00 39 1015.2
20260503220532 17 24 4.8 4.8 0.00 0.00 0.00 38 1015.2
20260503220029 17 271 3.2 3.2 0.00 0.00 0.00 38 1015.5
20260503215527 18 301 3.2 4.8 0.00 0.00 0.00 37 1015.3
20260503215024 18 287 3.2 3.2 0.00 0.00 0.00 37 1015.2
20260503214522 18 336 3.2 4.8 0.00 0.00 0.00 37 1015.5
20260503214018 18 340 3.2 3.2 0.00 0.00 0.00 37 1015.3
20260503213517 19 348 3.2 4.8 0.00 0.00 0.00 34 1015.5
20260503213013 19 293 1.6 3.2 0.00 0.00 0.00 36 1015.5
20260503212511 19 295 4.8 4.8 0.00 0.00 0.00 36 1015.5
20260503212008 18 333 4.8 4.8 0.00 0.00 0.00 36 1015.7
20260503211505 18 308 4.8 4.8 0.00 0.00 0.00 37 1015.5
20260503211000 18 283 3.2 3.2 0.00 0.00 0.00 37 1015.6
20260503210457 19 265 4.8 4.8 0.00 0.00 0.00 37 1015.7
20260503205952 19 255 1.6 1.6 0.00 0.00 0.00 37 1015.6
20260503205449 19 344 6.4 6.4 0.00 0.00 0.00 37 1015.8
20260503204945 20 297 3.2 3.2 0.00 0.00 0.00 37 1015.9
20260503204443 19 325 3.2 3.2 0.00 0.00 0.00 37 1015.8
20260503203939 19 328 6.4 6.4 0.00 0.00 0.00 38 1015.8
20260503203437 20 288 6.4 6.4 0.00 0.00 0.00 38 1015.9
20260503202934 20 291 3.2 3.2 0.00 0.00 0.00 38 1015.9
20260503202432 20 298 3.2 3.2 0.00 0.00 0.00 38 1015.8
20260503201930 19 180 3.2 3.2 0.00 0.00 0.00 37 1015.9
20260503201427 20 336 4.8 4.8 0.00 0.00 0.00 37 1016.0
20260503200924 20 305 1.6 1.6 0.00 0.00 0.00 37 1016.0
20260503200420 20 320 3.2 3.2 0.00 0.00 0.00 37 1016.3
20260503195917 21 277 4.8 4.8 0.00 0.00 0.00 36 1016.1
20260503195415 20 277 1.6 1.6 0.00 0.00 0.00 38 1016.3
20260503194911 20 296 3.2 3.2 0.00 0.00 0.00 40 1016.2
20260503194408 20 342 4.8 4.8 0.00 0.00 0.00 37 1016.2
20260503193904 20 3 3.2 3.2 0.00 0.00 0.00 37 1016.3
20260503193359 20 324 4.8 4.8 0.00 0.00 0.00 38 1016.4
20260503192855 20 289 0.0 1.6 0.00 0.00 0.00 38 1016.6
20260503192351 21 276 1.6 3.2 0.00 0.00 0.00 38 1016.4
20260503191847 21 347 1.6 3.2 0.00 0.00 0.00 37 1016.3
20260503191345 21 292 4.8 4.8 0.00 0.00 0.00 39 1016.6
20260503190841 21 319 3.2 3.2 0.00 0.00 0.00 38 1016.7
20260503190338 20 323 1.6 3.2 0.00 0.00 0.00 36 1016.6
20260503185836 21 276 1.6 3.2 0.00 0.00 0.00 38 1016.7
20260503185331 20 298 3.2 3.2 0.00 0.00 0.00 38 1016.7
20260503184831 21 342 4.8 9.7 0.00 0.00 0.00 35 1016.8
20260503184328 20 260 1.6 1.6 0.00 0.00 0.00 38 1016.8
20260503183823 20 278 3.2 4.8 0.00 0.00 0.00 37 1017.1
20260503183321 19 316 3.2 4.8 0.00 0.00 0.00 38 1017.1
20260503182818 20 324 3.2 3.2 0.00 0.00 0.00 38 1017.2
20260503182317 20 307 1.6 3.2 0.00 0.00 0.00 36 1017.2
20260503181814 20 123 3.2 3.2 0.00 0.00 0.00 39 1017.2
20260503181311 21 80 3.2 3.2 0.00 0.00 0.00 34 1017.2
20260503180807 20 268 1.6 3.2 0.00 0.00 0.00 38 1017.2
20260503180306 19 336 1.6 3.2 0.00 0.00 0.00 38 1017.1
20260503175801 20 304 3.2 3.2 0.00 0.00 0.00 37 1017.6
20260503175300 19 286 1.6 3.2 0.00 0.00 0.00 37 1017.2
20260503174755 18 268 1.6 3.2 0.00 0.00 0.00 37 1017.4
20260503174253 19 338 3.2 4.8 0.00 0.00 0.00 37 1017.2
20260503173748 18 3 3.2 4.8 0.00 0.00 0.00 39 1017.4
20260503173244 18 294 1.6 1.6 0.00 0.00 0.00 38 1017.6
20260503172741 17 62 1.6 1.6 0.00 0.00 0.00 43 1017.7
20260503172238 18 134 1.6 1.6 0.00 0.00 0.00 37 1017.7
20260503171735 18 256 0.0 0.0 0.00 0.00 0.00 39 1017.8
20260503171232 18 185 0.0 1.6 0.00 0.00 0.00 37 1018.0
20260503170729 20 256 1.6 3.2 0.00 0.00 0.00 39 1017.9
20260503170226 18 305 3.2 3.2 0.00 0.00 0.00 40 1018.0
20260503160147 17 193 0.0 1.6 0.00 0.00 0.00 40 1018.9
20260503150618 16 340 3.2 4.8 0.00 0.00 0.00 40 1019.4
20260503150114 15 285 1.6 3.2 0.00 0.00 0.00 48 1019.4
20260503131008 8 45 0.0 0.0 0.00 0.00 0.00 79 1019.1
20260503130505 7 45 0.0 0.0 0.00 0.00 0.00 84 1019.2
20260503110355 1 164 0.0 0.0 0.00 0.00 0.00 99 1017.9
20260503090241 1 168 0.0 0.0 0.00 0.00 0.00 99 1017.1
20260503081209 2 168 0.0 0.0 0.00 0.00 0.00 98 1016.5
20260503080704 2 168 0.0 0.0 0.00 0.00 0.00 97 1016.6
20260503080201 2 168 0.0 0.0 0.00 0.00 0.00 97 1016.5
20260503072638 3 187 0.0 0.0 0.00 0.00 0.00 97 1016.2
20260503072135 3 187 0.0 0.0 0.00 0.00 0.00 97 1016.2
20260503071631 3 187 0.0 0.0 0.00 0.00 0.00 96 1016.2
20260503071122 3 187 0.0 0.0 0.00 0.00 0.00 96 1016.0
20260503070620 3 187 0.0 0.0 0.00 0.00 0.00 96 1016.2
20260503070118 3 187 0.0 0.0 0.00 0.00 0.00 96 1015.9
20260503055038 5 197 0.0 0.0 0.00 0.00 0.00 89 1015.8
20260503054534 5 197 0.0 0.0 0.00 0.00 0.00 89 1016.1
20260503054032 5 199 0.0 1.6 0.00 0.00 0.00 89 1016.0
20260503053530 5 230 0.0 0.0 0.00 0.00 0.00 89 1016.0
20260503053027 5 232 0.0 0.0 0.00 0.00 0.00 87 1015.8
20260503052524 6 230 0.0 0.0 0.00 0.00 0.00 86 1015.8
20260503052020 6 230 0.0 0.0 0.00 0.00 0.00 88 1015.9
20260503051515 6 230 0.0 0.0 0.00 0.00 0.00 87 1015.7
20260503051013 6 252 0.0 0.0 0.00 0.00 0.00 88 1015.8
20260503050509 6 269 0.0 0.0 0.00 0.00 0.00 86 1015.8
20260503050007 6 243 1.6 1.6 0.00 0.00 0.00 85 1015.9
20260503045504 6 256 0.0 0.0 0.00 0.00 0.00 85 1015.8
20260503045001 6 129 1.6 1.6 0.00 0.00 0.00 85 1015.7
20260503044457 6 116 1.6 1.6 0.00 0.00 0.00 85 1015.7
20260503043955 7 137 0.0 1.6 0.00 0.00 0.00 85 1016.0
20260503043451 7 137 0.0 0.0 0.00 0.00 0.00 85 1015.8
20260503042947 7 171 1.6 1.6 0.00 0.00 0.00 84 1015.8
20260503042444 6 121 0.0 0.0 0.00 0.00 0.00 84 1016.0
20260503041941 6 120 0.0 0.0 0.00 0.00 0.00 84 1016.0
20260503041438 6 128 0.0 0.0 0.00 0.00 0.00 84 1016.0
20260503040935 6 127 0.0 0.0 0.00 0.00 0.00 84 1016.0
20260503040432 6 49 0.0 0.0 0.00 0.00 0.00 83 1015.9
20260503035930 6 41 0.0 0.0 0.00 0.00 0.00 83 1015.8